OCO 2

Last updated on Thu Nov 21 2024 00:03:26 GMT+0000 (Coordinated Universal Time)

1 40059U 14035A 24325.55876112 .00001263 00000+0 29064-3 0 9997 2 40059 98.2189 264.0642 0001516 87.2270 272.9101 14.57067642552512
UTC large
Height (km)
Speed (km/s)
/
Latitude / Longitude
Inclination (degrees)
Orbital Period (minutes)
Azimuth
Elevation
Range (km)
Doppler Factor

Next 0 passes for location: London (51.5072 / 0.1276)

Sorry there are no passes over London.